Location: Newark
(30.0333°N, 31.2167°E)
Time: 18:22:37
(UTC+00:00)

Transit 2A - Visible Passes

Search period start: 27 January 2020 00:00
Search period end: 06 February 2020 00:00
Orbit: 601 x 958 km, 66.7° (Epoch: 27 January)

Date Brightness Start Highest point End Pass type
(mag) Time Alt. Az. Time Alt. Az. Time Alt. Az.
27 Jan 7.5 02:11:23 32° ENE 02:11:31 32° ENE 02:16:21 10° ESE visible
27 Jan 7.1 03:51:56 17° WNW 03:54:31 25° WSW 03:58:59 10° SSW visible
27 Jan 5.5 16:41:38 10° SSW 16:46:11 87° WNW 16:49:16 19° NNE visible
28 Jan 8.5 01:39:05 18° E 01:39:05 18° E 01:41:20 10° ESE visible
28 Jan 6.5 03:19:38 36° W 03:20:28 39° WSW 03:25:39 10° S visible
28 Jan 5.7 16:07:40 10° S 16:12:06 54° ESE 16:16:21 10° NE visible
28 Jan 8.5 17:54:28 10° WNW 17:55:28 11° NW 17:56:28 10° NW visible
29 Jan 6.4 02:47:24 52° SSW 02:47:24 52° SSW 02:51:56 10° SSE visible
29 Jan 8.1 17:18:13 10° W 17:21:10 17° WNW 17:24:04 10° NNW visible
30 Jan 7.6 02:15:13 29° SSE 02:15:13 29° SSE 02:17:55 10° SSE visible
30 Jan 7.5 16:43:07 10° WSW 16:46:55 27° WNW 16:50:38 10° N visible
31 Jan 8.7 01:43:03 13° SE 01:43:03 13° SE 01:43:39 10° SE visible
31 Jan 8.2 03:23:37 11° SW 03:23:37 11° SW 03:23:57 10° SW visible
31 Jan 6.6 16:08:27 10° SW 16:12:45 45° WNW 16:16:55 10° N visible
03 Feb 8.2 16:11:00 10° W 16:13:39 16° WNW 16:16:17 10° NNW visible
